| time (UTC) | temp C | wind direction | speed KPH | gust KPH | rain 1hr cm | rain 24hr cm | rain mn cm | humidity % | barometer mb |
| 20260510180113 | 23 | 345 | 3.2 | 3.2 | 0.00 | 0.03 | 0.03 | 54 | 1013.5 |
| 20260510175608 | 23 | 18 | 6.4 | 6.4 | 0.00 | 0.03 | 0.03 | 52 | 1013.4 |
| 20260510175104 | 23 | 341 | 6.4 | 11.3 | 0.00 | 0.03 | 0.03 | 50 | 1013.5 |
| 20260510174602 | 24 | 344 | 9.7 | 11.3 | 0.00 | 0.03 | 0.03 | 51 | 1013.5 |
| 20260510174059 | 25 | 116 | 4.8 | 6.4 | 0.00 | 0.03 | 0.03 | 46 | 1013.5 |
| 20260510173554 | 25 | 93 | 1.6 | 1.6 | 0.00 | 0.03 | 0.03 | 44 | 1013.5 |
| 20260510173052 | 25 | 97 | 3.2 | 4.8 | 0.00 | 0.03 | 0.03 | 49 | 1013.4 |
| 20260510172547 | 24 | 44 | 3.2 | 3.2 | 0.00 | 0.03 | 0.03 | 51 | 1013.6 |
| 20260510172044 | 25 | 324 | 6.4 | 6.4 | 0.00 | 0.03 | 0.03 | 48 | 1013.5 |
| 20260510171541 | 25 | 340 | 4.8 | 6.4 | 0.00 | 0.03 | 0.03 | 52 | 1013.5 |
| 20260510171038 | 24 | 111 | 1.6 | 1.6 | 0.00 | 0.03 | 0.03 | 46 | 1013.5 |
| 20260510170534 | 25 | 180 | 6.4 | 6.4 | 0.00 | 0.03 | 0.03 | 50 | 1013.3 |
| 20260510170031 | 24 | 159 | 1.6 | 1.6 | 0.00 | 0.03 | 0.03 | 49 | 1013.2 |
| 20260510165526 | 23 | 125 | 1.6 | 3.2 | 0.00 | 0.03 | 0.03 | 49 | 1013.4 |
| 20260510165023 | 23 | 165 | 3.2 | 4.8 | 0.00 | 0.03 | 0.03 | 50 | 1013.3 |
| 20260510164520 | 23 | 328 | 6.4 | 6.4 | 0.00 | 0.03 | 0.03 | 48 | 1013.4 |
| 20260510164017 | 24 | 57 | 1.6 | 1.6 | 0.00 | 0.03 | 0.03 | 50 | 1013.3 |
| 20260510163512 | 23 | 125 | 0.0 | 1.6 | 0.00 | 0.03 | 0.03 | 49 | 1013.4 |
| 20260510163008 | 23 | 130 | 1.6 | 1.6 | 0.00 | 0.03 | 0.03 | 50 | 1013.6 |
| 20260510162504 | 23 | 181 | 1.6 | 3.2 | 0.00 | 0.03 | 0.03 | 54 | 1013.4 |
| 20260510162000 | 23 | 118 | 3.2 | 4.8 | 0.00 | 0.03 | 0.03 | 52 | 1013.6 |
| 20260510161456 | 23 | 100 | 1.6 | 3.2 | 0.00 | 0.03 | 0.03 | 51 | 1013.5 |
| 20260510160953 | 23 | 292 | 6.4 | 9.7 | 0.00 | 0.03 | 0.03 | 54 | 1013.4 |
| 20260510160450 | 22 | 282 | 3.2 | 4.8 | 0.00 | 0.03 | 0.03 | 56 | 1013.3 |
| 20260510155948 | 22 | 173 | 1.6 | 3.2 | 0.00 | 0.03 | 0.03 | 56 | 1013.4 |
| 20260510155446 | 23 | 105 | 3.2 | 3.2 | 0.00 | 0.03 | 0.03 | 54 | 1013.4 |
| 20260510154943 | 22 | 172 | 3.2 | 3.2 | 0.00 | 0.03 | 0.03 | 61 | 1013.5 |
| 20260510154439 | 23 | 193 | 1.6 | 3.2 | 0.00 | 0.03 | 0.03 | 61 | 1013.8 |
| 20260510153937 | 22 | 72 | 0.0 | 1.6 | 0.00 | 0.03 | 0.03 | 59 | 1013.7 |
| 20260510153434 | 21 | 120 | 6.4 | 6.4 | 0.00 | 0.03 | 0.03 | 59 | 1013.8 |
| 20260510152931 | 21 | 240 | 4.8 | 4.8 | 0.00 | 0.03 | 0.03 | 59 | 1013.6 |
| 20260510152429 | 21 | 340 | 4.8 | 4.8 | 0.00 | 0.03 | 0.03 | 61 | 1013.5 |
| 20260510151925 | 21 | 115 | 1.6 | 3.2 | 0.00 | 0.03 | 0.03 | 63 | 1013.5 |
| 20260510151422 | 20 | 139 | 0.0 | 1.6 | 0.00 | 0.03 | 0.03 | 61 | 1013.6 |
| 20260510150918 | 21 | 356 | 6.4 | 6.4 | 0.00 | 0.03 | 0.03 | 61 | 1013.8 |
| 20260510150414 | 20 | 123 | 3.2 | 3.2 | 0.00 | 0.03 | 0.03 | 66 | 1013.9 |
| 20260510145910 | 20 | 61 | 4.8 | 4.8 | 0.00 | 0.03 | 0.03 | 65 | 1014.0 |
| 20260510145407 | 20 | 143 | 3.2 | 3.2 | 0.00 | 0.03 | 0.03 | 64 | 1013.9 |
| 20260510144904 | 20 | 90 | 1.6 | 1.6 | 0.00 | 0.03 | 0.03 | 65 | 1013.9 |
| 20260510144401 | 20 | 159 | 4.8 | 6.4 | 0.00 | 0.03 | 0.03 | 67 | 1013.8 |
| 20260510143900 | 20 | 108 | 0.0 | 1.6 | 0.00 | 0.03 | 0.03 | 66 | 1013.8 |
| 20260510143357 | 19 | 126 | 1.6 | 1.6 | 0.00 | 0.03 | 0.03 | 68 | 1013.9 |
| 20260510142854 | 19 | 127 | 0.0 | 0.0 | 0.00 | 0.03 | 0.03 | 72 | 1013.8 |
| 20260510142350 | 18 | 151 | 1.6 | 1.6 | 0.00 | 0.03 | 0.03 | 68 | 1013.7 |
| 20260510141847 | 18 | 91 | 0.0 | 1.6 | 0.00 | 0.03 | 0.03 | 73 | 1013.7 |
| 20260510141345 | 17 | 130 | 1.6 | 1.6 | 0.00 | 0.03 | 0.03 | 75 | 1013.8 |
| 20260510140842 | 18 | 61 | 1.6 | 1.6 | 0.00 | 0.03 | 0.03 | 74 | 1013.6 |
| 20260510140338 | 17 | 147 | 1.6 | 3.2 | 0.00 | 0.03 | 0.03 | 75 | 1013.7 |
| 20260510135836 | 17 | 102 | 1.6 | 1.6 | 0.00 | 0.03 | 0.03 | 77 | 1013.8 |
| 20260510135333 | 16 | 17 | 3.2 | 3.2 | 0.00 | 0.03 | 0.03 | 80 | 1013.5 |
| 20260510134831 | 16 | 120 | 1.6 | 1.6 | 0.00 | 0.03 | 0.03 | 81 | 1013.7 |
| 20260510134327 | 16 | 95 | 1.6 | 1.6 | 0.00 | 0.03 | 0.03 | 81 | 1013.7 |
| 20260510133823 | 15 | 181 | 1.6 | 3.2 | 0.00 | 0.03 | 0.03 | 81 | 1013.7 |
| 20260510133319 | 15 | 134 | 0.0 | 1.6 | 0.00 | 0.03 | 0.03 | 87 | 1013.5 |
| 20260510132815 | 14 | 84 | 1.6 | 1.6 | 0.00 | 0.03 | 0.03 | 90 | 1013.7 |
| 20260510132314 | 14 | 149 | 1.6 | 1.6 | 0.00 | 0.03 | 0.03 | 86 | 1013.7 |
| 20260510131810 | 13 | 130 | 0.0 | 0.0 | 0.00 | 0.03 | 0.03 | 93 | 1013.5 |
| 20260510131308 | 12 | 132 | 0.0 | 0.0 | 0.00 | 0.03 | 0.03 | 96 | 1013.7 |
| 20260510130804 | 12 | 153 | 1.6 | 3.2 | 0.00 | 0.03 | 0.03 | 96 | 1013.6 |
| 20260510130301 | 12 | 121 | 0.0 | 0.0 | 0.00 | 0.03 | 0.03 | 96 | 1013.9 |
| 20260510125757 | 12 | 131 | 0.0 | 1.6 | 0.00 | 0.03 | 0.03 | 97 | 1013.8 |
| 20260510125253 | 12 | 61 | 1.6 | 1.6 | 0.00 | 0.03 | 0.03 | 97 | 1013.8 |
| 20260510124750 | 12 | 126 | 0.0 | 0.0 | 0.00 | 0.03 | 0.03 | 97 | 1013.6 |
| 20260510124248 | 11 | 123 | 0.0 | 0.0 | 0.00 | 0.03 | 0.03 | 97 | 1013.6 |
| 20260510123743 | 11 | 107 | 0.0 | 0.0 | 0.00 | 0.03 | 0.03 | 97 | 1013.4 |
| 20260510123239 | 11 | 112 | 1.6 | 1.6 | 0.00 | 0.03 | 0.03 | 97 | 1013.6 |
| 20260510122736 | 11 | 149 | 0.0 | 0.0 | 0.00 | 0.03 | 0.03 | 97 | 1013.4 |
| 20260510122232 | 11 | 143 | 0.0 | 0.0 | 0.00 | 0.03 | 0.03 | 97 | 1013.4 |
| 20260510121728 | 11 | 130 | 0.0 | 0.0 | 0.00 | 0.03 | 0.03 | 97 | 1013.3 |
| 20260510121226 | 11 | 127 | 0.0 | 0.0 | 0.00 | 0.03 | 0.03 | 97 | 1013.3 |
| 20260510120723 | 11 | 122 | 0.0 | 0.0 | 0.00 | 0.03 | 0.03 | 97 | 1013.1 |
| 20260510120220 | 11 | 140 | 0.0 | 0.0 | 0.00 | 0.03 | 0.03 | 97 | 1013.1 |
| 20260510115715 | 11 | 138 | 0.0 | 0.0 | 0.00 | 0.03 | 0.03 | 97 | 1013.1 |
| 20260510115214 | 11 | 94 | 0.0 | 1.6 | 0.00 | 0.03 | 0.03 | 97 | 1013.0 |
| 20260510114708 | 11 | 151 | 0.0 | 0.0 | 0.00 | 0.03 | 0.03 | 97 | 1013.1 |
| 20260510114206 | 11 | 116 | 0.0 | 0.0 | 0.00 | 0.03 | 0.03 | 97 | 1013.0 |
| 20260510113700 | 11 | 119 | 0.0 | 0.0 | 0.00 | 0.03 | 0.03 | 97 | 1013.0 |
| 20260510113158 | 10 | 146 | 1.6 | 1.6 | 0.00 | 0.03 | 0.03 | 97 | 1012.8 |
| 20260510112654 | 10 | 159 | 0.0 | 0.0 | 0.00 | 0.03 | 0.03 | 97 | 1012.9 |
| 20260510112152 | 10 | 126 | 0.0 | 0.0 | 0.00 | 0.03 | 0.03 | 97 | 1012.7 |
| 20260510111647 | 10 | 132 | 0.0 | 0.0 | 0.00 | 0.03 | 0.03 | 97 | 1013.0 |
| 20260510111144 | 10 | 136 | 0.0 | 0.0 | 0.00 | 0.03 | 0.03 | 97 | 1013.1 |
| 20260510110639 | 10 | 134 | 0.0 | 0.0 | 0.00 | 0.03 | 0.03 | 97 | 1012.9 |
| 20260510110137 | 10 | 130 | 0.0 | 0.0 | 0.00 | 0.03 | 0.03 | 97 | 1012.8 |
| 20260510105633 | 10 | 99 | 1.6 | 1.6 | 0.00 | 0.03 | 0.03 | 97 | 1012.5 |
| 20260510105132 | 10 | 125 | 0.0 | 1.6 | 0.00 | 0.03 | 0.03 | 97 | 1012.5 |
| 20260510104629 | 10 | 110 | 0.0 | 0.0 | 0.00 | 0.03 | 0.03 | 97 | 1012.4 |
| 20260510104126 | 10 | 123 | 1.6 | 1.6 | 0.00 | 0.03 | 0.03 | 97 | 1012.3 |
| 20260510103623 | 10 | 114 | 0.0 | 1.6 | 0.00 | 0.03 | 0.03 | 97 | 1012.4 |
| 20260510103119 | 10 | 129 | 0.0 | 0.0 | 0.00 | 0.03 | 0.03 | 97 | 1012.3 |
| 20260510102614 | 10 | 136 | 1.6 | 1.6 | 0.00 | 0.03 | 0.03 | 97 | 1012.3 |
| 20260510102110 | 10 | 137 | 0.0 | 0.0 | 0.00 | 0.03 | 0.03 | 97 | 1012.4 |
| 20260510101608 | 10 | 136 | 0.0 | 0.0 | 0.00 | 0.03 | 0.03 | 97 | 1012.4 |
| 20260510101106 | 10 | 136 | 0.0 | 0.0 | 0.00 | 0.03 | 0.03 | 97 | 1012.4 |
| 20260510100602 | 10 | 138 | 0.0 | 0.0 | 0.00 | 0.03 | 0.03 | 97 | 1012.4 |
| 20260510100100 | 10 | 117 | 1.6 | 1.6 | 0.00 | 0.03 | 0.03 | 97 | 1012.2 |
| 20260510095555 | 10 | 124 | 0.0 | 0.0 | 0.00 | 0.03 | 0.03 | 97 | 1012.0 |
| 20260510095050 | 10 | 115 | 0.0 | 0.0 | 0.00 | 0.03 | 0.03 | 97 | 1012.1 |
| 20260510094550 | 10 | 126 | 0.0 | 0.0 | 0.00 | 0.03 | 0.03 | 97 | 1012.1 |
| 20260510094045 | 10 | 128 | 1.6 | 1.6 | 0.00 | 0.03 | 0.03 | 97 | 1012.2 |
| 20260510093541 | 10 | 130 | 0.0 | 0.0 | 0.00 | 0.03 | 0.03 | 97 | 1012.1 |
| 20260510093039 | 10 | 131 | 0.0 | 0.0 | 0.00 | 0.03 | 0.03 | 97 | 1012.1 |
| 20260510092536 | 10 | 125 | 0.0 | 0.0 | 0.00 | 0.03 | 0.03 | 97 | 1012.0 |
| 20260510092035 | 10 | 133 | 0.0 | 0.0 | 0.00 | 0.03 | 0.03 | 97 | 1012.0 |
| 20260510091532 | 10 | 143 | 0.0 | 0.0 | 0.00 | 0.03 | 0.03 | 97 | 1012.0 |
| 20260510091028 | 10 | 133 | 0.0 | 0.0 | 0.00 | 0.03 | 0.03 | 97 | 1012.1 |
| 20260510090525 | 10 | 134 | 0.0 | 0.0 | 0.00 | 0.03 | 0.03 | 97 | 1011.9 |
| 20260510090021 | 10 | 27 | 3.2 | 3.2 | 0.00 | 0.03 | 0.03 | 97 | 1012.3 |
| 20260510085521 | 10 | 153 | 1.6 | 1.6 | 0.00 | 0.03 | 0.03 | 97 | 1012.0 |
| 20260510085017 | 10 | 109 | 3.2 | 3.2 | 0.00 | 0.03 | 0.03 | 97 | 1012.0 |
| 20260510084514 | 10 | 128 | 0.0 | 1.6 | 0.00 | 0.03 | 0.03 | 97 | 1012.4 |
| 20260510084011 | 9 | 168 | 3.2 | 3.2 | 0.00 | 0.03 | 0.03 | 97 | 1011.7 |
| 20260510083507 | 9 | 357 | 4.8 | 4.8 | 0.00 | 0.03 | 0.03 | 97 | 1011.8 |
| 20260510083003 | 9 | 3 | 4.8 | 4.8 | 0.00 | 0.03 | 0.03 | 97 | 1012.1 |
| 20260510082501 | 9 | 135 | 0.0 | 0.0 | 0.00 | 0.03 | 0.03 | 97 | 1011.5 |
| 20260510082000 | 9 | 135 | 0.0 | 0.0 | 0.00 | 0.03 | 0.03 | 97 | 1011.4 |
| 20260510081456 | 9 | 130 | 0.0 | 0.0 | 0.00 | 0.03 | 0.03 | 97 | 1011.4 |
| 20260510080952 | 9 | 126 | 0.0 | 0.0 | 0.00 | 0.03 | 0.03 | 97 | 1011.6 |
| 20260510080451 | 9 | 117 | 0.0 | 0.0 | 0.00 | 0.03 | 0.03 | 97 | 1011.6 |
| 20260510075948 | 9 | 138 | 0.0 | 0.0 | 0.00 | 0.03 | 0.03 | 97 | 1011.4 |
| 20260510075446 | 9 | 127 | 0.0 | 0.0 | 0.00 | 0.03 | 0.03 | 97 | 1011.4 |
| 20260510074942 | 9 | 137 | 0.0 | 0.0 | 0.00 | 0.03 | 0.03 | 97 | 1011.3 |
| 20260510074440 | 9 | 136 | 0.0 | 0.0 | 0.00 | 0.03 | 0.03 | 97 | 1011.4 |
| 20260510073936 | 9 | 136 | 0.0 | 0.0 | 0.00 | 0.03 | 0.03 | 97 | 1011.4 |
| 20260510073431 | 9 | 144 | 0.0 | 0.0 | 0.00 | 0.03 | 0.03 | 97 | 1011.5 |
| 20260510072928 | 9 | 130 | 0.0 | 0.0 | 0.00 | 0.03 | 0.03 | 97 | 1011.2 |
| 20260510072425 | 9 | 132 | 0.0 | 0.0 | 0.00 | 0.03 | 0.03 | 96 | 1011.5 |
| 20260510071920 | 9 | 115 | 1.6 | 1.6 | 0.00 | 0.03 | 0.03 | 96 | 1011.5 |
| 20260510071417 | 9 | 137 | 0.0 | 1.6 | 0.00 | 0.03 | 0.03 | 96 | 1011.3 |
| 20260510070915 | 9 | 181 | 0.0 | 1.6 | 0.00 | 0.03 | 0.03 | 96 | 1011.4 |
| 20260510070412 | 9 | 138 | 0.0 | 0.0 | 0.00 | 0.03 | 0.03 | 96 | 1011.1 |
| 20260510065907 | 9 | 117 | 1.6 | 1.6 | 0.00 | 0.03 | 0.03 | 96 | 1011.2 |
| 20260510065404 | 9 | 134 | 0.0 | 0.0 | 0.00 | 0.03 | 0.03 | 96 | 1011.1 |
| 20260510064901 | 9 | 137 | 0.0 | 0.0 | 0.00 | 0.03 | 0.03 | 96 | 1011.1 |
| 20260510064359 | 9 | 138 | 0.0 | 0.0 | 0.00 | 0.03 | 0.03 | 96 | 1010.8 |
| 20260510063855 | 9 | 139 | 0.0 | 0.0 | 0.00 | 0.03 | 0.03 | 96 | 1010.9 |
| 20260510063351 | 9 | 135 | 0.0 | 0.0 | 0.00 | 0.03 | 0.03 | 96 | 1011.0 |
| 20260510062848 | 9 | 134 | 0.0 | 0.0 | 0.00 | 0.03 | 0.03 | 96 | 1010.7 |
| 20260510062343 | 9 | 131 | 0.0 | 0.0 | 0.00 | 0.03 | 0.03 | 96 | 1010.8 |
| 20260510061839 | 9 | 135 | 0.0 | 0.0 | 0.00 | 0.03 | 0.03 | 96 | 1010.8 |
| 20260510061336 | 9 | 135 | 0.0 | 0.0 | 0.18 | 0.03 | 0.03 | 96 | 1010.9 |
| 20260510060832 | 9 | 135 | 0.0 | 0.0 | 0.18 | 0.03 | 0.03 | 96 | 1011.2 |
| 20260510060330 | 9 | 127 | 0.0 | 0.0 | 0.00 | 0.00 | 0.00 | 96 | 1010.9 |
| 20260510055826 | 9 | 118 | 0.0 | 0.0 | 0.00 | 0.00 | 0.00 | 96 | 1011.0 |
| 20260510055325 | 9 | 117 | 0.0 | 0.0 | 0.00 | 0.00 | 0.00 | 96 | 1011.2 |
| 20260510054825 | 9 | 127 | 0.0 | 0.0 | 0.00 | 0.00 | 0.00 | 96 | 1011.1 |
| 20260510054320 | 9 | 135 | 0.0 | 0.0 | 0.00 | 0.00 | 0.00 | 96 | 1011.2 |
| 20260510053816 | 9 | 133 | 0.0 | 0.0 | 0.00 | 0.00 | 0.00 | 96 | 1011.0 |
| 20260510053311 | 9 | 132 | 0.0 | 0.0 | 0.00 | 0.00 | 0.00 | 96 | 1011.3 |
| 20260510052808 | 9 | 140 | 0.0 | 0.0 | 0.00 | 0.00 | 0.00 | 96 | 1011.4 |
| 20260510052306 | 9 | 140 | 0.0 | 0.0 | 0.00 | 0.00 | 0.00 | 96 | 1011.3 |
| 20260510051800 | 9 | 140 | 0.0 | 0.0 | 0.00 | 0.00 | 0.00 | 96 | 1011.3 |
| 20260510051257 | 9 | 131 | 0.0 | 0.0 | 0.00 | 0.00 | 0.00 | 96 | 1011.3 |
| 20260510050753 | 9 | 142 | 0.0 | 0.0 | 0.00 | 0.00 | 0.00 | 96 | 1011.5 |
| 20260510050250 | 9 | 145 | 0.0 | 0.0 | 0.00 | 0.00 | 0.00 | 96 | 1011.4 |
| 20260510045747 | 9 | 141 | 0.0 | 0.0 | 0.00 | 0.00 | 0.00 | 96 | 1011.4 |
| 20260510045244 | 9 | 135 | 0.0 | 0.0 | 0.00 | 0.00 | 0.00 | 96 | 1011.6 |
| 20260510044741 | 9 | 135 | 0.0 | 0.0 | 0.00 | 0.00 | 0.00 | 96 | 1011.6 |
| 20260510044239 | 9 | 135 | 0.0 | 0.0 | 0.00 | 0.00 | 0.00 | 96 | 1011.5 |
| 20260510043733 | 9 | 135 | 0.0 | 0.0 | 0.00 | 0.00 | 0.00 | 96 | 1011.7 |
| 20260510043231 | 9 | 135 | 0.0 | 0.0 | 0.00 | 0.00 | 0.00 | 96 | 1011.6 |
| 20260510042728 | 9 | 136 | 0.0 | 0.0 | 0.00 | 0.00 | 0.00 | 96 | 1011.7 |
| 20260510042223 | 8 | 136 | 0.0 | 0.0 | 0.00 | 0.00 | 0.00 | 96 | 1011.6 |
| 20260510041721 | 8 | 135 | 0.0 | 0.0 | 0.00 | 0.00 | 0.00 | 96 | 1011.7 |
| 20260510041218 | 8 | 137 | 0.0 | 0.0 | 0.00 | 0.00 | 0.00 | 96 | 1011.8 |
| 20260510040715 | 8 | 137 | 0.0 | 0.0 | 0.00 | 0.00 | 0.00 | 96 | 1011.8 |
| 20260510040212 | 8 | 137 | 0.0 | 0.0 | 0.00 | 0.00 | 0.00 | 96 | 1011.8 |
| 20260510035707 | 8 | 138 | 0.0 | 0.0 | 0.00 | 0.33 | 0.33 | 96 | 1011.8 |
| 20260510035203 | 8 | 137 | 0.0 | 0.0 | 0.00 | 0.33 | 0.33 | 96 | 1011.6 |
| 20260510034659 | 8 | 137 | 0.0 | 0.0 | 0.00 | 0.33 | 0.33 | 96 | 1011.6 |
| 20260510034157 | 8 | 135 | 0.0 | 0.0 | 0.00 | 0.33 | 0.33 | 95 | 1011.7 |
| 20260510033653 | 9 | 135 | 0.0 | 0.0 | 0.00 | 0.33 | 0.33 | 95 | 1011.5 |
| 20260510033151 | 9 | 137 | 0.0 | 0.0 | 0.00 | 0.33 | 0.33 | 95 | 1011.6 |
| 20260510032647 | 9 | 137 | 0.0 | 0.0 | 0.00 | 0.33 | 0.33 | 95 | 1011.4 |
| 20260510032142 | 9 | 137 | 0.0 | 0.0 | 0.00 | 0.33 | 0.33 | 95 | 1011.3 |
| 20260510031638 | 9 | 136 | 0.0 | 0.0 | 0.00 | 0.33 | 0.33 | 95 | 1011.3 |
| 20260510031135 | 9 | 137 | 0.0 | 0.0 | 0.00 | 0.33 | 0.33 | 95 | 1011.4 |
| 20260510030634 | 9 | 137 | 0.0 | 0.0 | 0.00 | 0.33 | 0.33 | 95 | 1011.2 |
| 20260510030132 | 9 | 137 | 0.0 | 0.0 | 0.00 | 0.33 | 0.33 | 95 | 1011.1 |
| 20260510025629 | 9 | 135 | 0.0 | 0.0 | 0.00 | 0.33 | 0.33 | 95 | 1011.2 |
| 20260510025126 | 10 | 133 | 0.0 | 0.0 | 0.00 | 0.33 | 0.33 | 95 | 1011.2 |
| 20260510024623 | 10 | 133 | 0.0 | 0.0 | 0.00 | 0.33 | 0.33 | 95 | 1011.3 |
| 20260510024120 | 10 | 133 | 0.0 | 0.0 | 0.00 | 0.33 | 0.33 | 95 | 1011.5 |
| 20260510023616 | 10 | 133 | 0.0 | 0.0 | 0.00 | 0.33 | 0.33 | 95 | 1011.2 |
| 20260510023114 | 10 | 135 | 0.0 | 0.0 | 0.00 | 0.33 | 0.33 | 95 | 1011.1 |
| 20260510022613 | 10 | 132 | 0.0 | 0.0 | 0.00 | 0.33 | 0.33 | 95 | 1011.1 |
| 20260510022108 | 10 | 132 | 0.0 | 0.0 | 0.00 | 0.33 | 0.33 | 95 | 1011.3 |
| 20260510021604 | 10 | 135 | 0.0 | 0.0 | 0.00 | 0.33 | 0.33 | 95 | 1011.2 |
| 20260510021103 | 10 | 135 | 0.0 | 0.0 | 0.00 | 0.33 | 0.33 | 95 | 1011.3 |
| 20260510020601 | 10 | 131 | 0.0 | 0.0 | 0.00 | 0.33 | 0.33 | 95 | 1011.1 |
| 20260510020057 | 10 | 130 | 0.0 | 0.0 | 0.00 | 0.33 | 0.33 | 95 | 1011.1 |
| 20260510015554 | 10 | 143 | 0.0 | 0.0 | 0.00 | 0.33 | 0.33 | 95 | 1011.1 |
| 20260510015050 | 10 | 142 | 0.0 | 0.0 | 0.00 | 0.33 | 0.33 | 94 | 1011.1 |
| 20260510014546 | 10 | 133 | 0.0 | 0.0 | 0.00 | 0.33 | 0.33 | 94 | 1011.1 |
| 20260510014043 | 10 | 136 | 0.0 | 0.0 | 0.00 | 0.33 | 0.33 | 94 | 1011.2 |
| 20260510013538 | 10 | 134 | 0.0 | 0.0 | 0.00 | 0.33 | 0.33 | 94 | 1011.1 |
| 20260510013034 | 10 | 129 | 0.0 | 0.0 | 0.00 | 0.33 | 0.33 | 94 | 1011.1 |
| 20260510012533 | 10 | 134 | 0.0 | 0.0 | 0.00 | 0.33 | 0.33 | 94 | 1011.0 |
| 20260510012031 | 11 | 133 | 0.0 | 0.0 | 0.00 | 0.33 | 0.33 | 94 | 1011.1 |
| 20260510011530 | 10 | 135 | 0.0 | 0.0 | 0.00 | 0.33 | 0.33 | 94 | 1011.2 |
| 20260510011026 | 11 | 135 | 0.0 | 0.0 | 0.00 | 0.33 | 0.33 | 94 | 1010.9 |
| 20260510010523 | 11 | 130 | 0.0 | 0.0 | 0.00 | 0.33 | 0.33 | 94 | 1010.9 |
| 20260510010020 | 11 | 139 | 0.0 | 0.0 | 0.00 | 0.33 | 0.33 | 94 | 1010.9 |
| 20260510005515 | 11 | 136 | 0.0 | 0.0 | 0.00 | 0.33 | 0.33 | 93 | 1010.8 |
| 20260510005014 | 11 | 134 | 0.0 | 0.0 | 0.00 | 0.33 | 0.33 | 93 | 1010.7 |
| 20260510004511 | 11 | 133 | 0.0 | 0.0 | 0.00 | 0.33 | 0.33 | 93 | 1010.7 |
| 20260510004009 | 11 | 122 | 0.0 | 0.0 | 0.00 | 0.33 | 0.33 | 93 | 1010.7 |
| 20260510003505 | 11 | 129 | 0.0 | 0.0 | 0.00 | 0.33 | 0.33 | 93 | 1010.7 |
| 20260510003000 | 11 | 135 | 0.0 | 0.0 | 0.00 | 0.33 | 0.33 | 93 | 1010.8 |
| 20260510002456 | 11 | 133 | 0.0 | 0.0 | 0.00 | 0.33 | 0.33 | 93 | 1010.7 |
| 20260510001953 | 12 | 129 | 0.0 | 0.0 | 0.00 | 0.33 | 0.33 | 93 | 1010.6 |
| 20260510001450 | 12 | 141 | 0.0 | 0.0 | 0.00 | 0.33 | 0.33 | 92 | 1010.7 |
| 20260510000948 | 12 | 142 | 0.0 | 0.0 | 0.00 | 0.33 | 0.33 | 92 | 1010.6 |
| 20260510000444 | 12 | 140 | 0.0 | 0.0 | 0.00 | 0.33 | 0.33 | 92 | 1010.8 |
| 20260509235940 | 12 | 135 | 0.0 | 0.0 | 0.00 | 0.33 | 0.33 | 91 | 1010.6 |
| 20260509235437 | 12 | 129 | 0.0 | 0.0 | 0.00 | 0.33 | 0.33 | 91 | 1010.6 |
| 20260509234933 | 12 | 127 | 0.0 | 0.0 | 0.00 | 0.33 | 0.33 | 90 | 1010.8 |
| 20260509234430 | 12 | 132 | 0.0 | 0.0 | 0.00 | 0.33 | 0.33 | 90 | 1010.6 |
| 20260509233929 | 12 | 128 | 0.0 | 0.0 | 0.00 | 0.33 | 0.33 | 90 | 1010.6 |
| 20260509233426 | 13 | 128 | 0.0 | 0.0 | 0.00 | 0.33 | 0.33 | 90 | 1010.7 |
| 20260509232922 | 13 | 128 | 0.0 | 0.0 | 0.00 | 0.33 | 0.33 | 89 | 1010.5 |
| 20260509232420 | 13 | 127 | 0.0 | 0.0 | 0.00 | 0.33 | 0.33 | 89 | 1010.5 |
| 20260509231915 | 13 | 116 | 0.0 | 0.0 | 0.00 | 0.33 | 0.33 | 88 | 1010.4 |
| 20260509231412 | 13 | 134 | 0.0 | 0.0 | 0.00 | 0.33 | 0.33 | 87 | 1010.5 |
| 20260509230910 | 13 | 131 | 0.0 | 0.0 | 0.00 | 0.33 | 0.33 | 86 | 1010.4 |
| 20260509230407 | 14 | 126 | 0.0 | 0.0 | 0.00 | 0.33 | 0.33 | 86 | 1010.5 |
| 20260509225902 | 13 | 120 | 0.0 | 1.6 | 0.00 | 0.33 | 0.33 | 87 | 1010.4 |
| 20260509225359 | 13 | 122 | 0.0 | 0.0 | 0.00 | 0.33 | 0.33 | 88 | 1010.5 |
| 20260509224855 | 13 | 133 | 0.0 | 0.0 | 0.00 | 0.33 | 0.33 | 89 | 1010.6 |
| 20260509224351 | 13 | 106 | 0.0 | 1.6 | 0.00 | 0.33 | 0.33 | 88 | 1010.4 |
| 20260509223849 | 13 | 90 | 0.0 | 0.0 | 0.00 | 0.33 | 0.33 | 89 | 1010.4 |
| 20260509223345 | 13 | 145 | 0.0 | 0.0 | 0.00 | 0.33 | 0.33 | 89 | 1010.5 |
| 20260509222842 | 13 | 115 | 0.0 | 0.0 | 0.00 | 0.33 | 0.33 | 89 | 1010.3 |
| 20260509222337 | 13 | 160 | 0.0 | 1.6 | 0.00 | 0.33 | 0.33 | 89 | 1010.5 |
| 20260509221833 | 13 | 139 | 0.0 | 1.6 | 0.00 | 0.33 | 0.33 | 88 | 1010.3 |
| 20260509221331 | 13 | 148 | 0.0 | 0.0 | 0.00 | 0.33 | 0.33 | 88 | 1010.5 |
| 20260509220831 | 13 | 158 | 1.6 | 1.6 | 0.00 | 0.33 | 0.33 | 88 | 1010.6 |
| 20260509220327 | 13 | 140 | 0.0 | 0.0 | 0.00 | 0.33 | 0.33 | 88 | 1010.6 |
| 20260509215823 | 13 | 124 | 3.2 | 3.2 | 0.00 | 0.33 | 0.33 | 89 | 1010.6 |
| 20260509215320 | 13 | 120 | 0.0 | 0.0 | 0.00 | 0.33 | 0.33 | 89 | 1010.7 |
| 20260509214816 | 13 | 112 | 0.0 | 0.0 | 0.00 | 0.33 | 0.33 | 89 | 1010.7 |
| 20260509214314 | 13 | 121 | 1.6 | 1.6 | 0.00 | 0.33 | 0.33 | 88 | 1010.8 |
| 20260509213811 | 13 | 91 | 0.0 | 1.6 | 0.00 | 0.33 | 0.33 | 88 | 1010.9 |
| 20260509213306 | 13 | 137 | 0.0 | 0.0 | 0.00 | 0.33 | 0.33 | 88 | 1010.9 |
| 20260509212804 | 13 | 143 | 0.0 | 0.0 | 0.00 | 0.33 | 0.33 | 89 | 1011.0 |
| 20260509212305 | 13 | 132 | 0.0 | 0.0 | 0.00 | 0.33 | 0.33 | 89 | 1010.9 |
| 20260509211756 | 13 | 134 | 0.0 | 0.0 | 0.00 | 0.33 | 0.33 | 89 | 1011.0 |
| 20260509211253 | 13 | 99 | 0.0 | 0.0 | 0.13 | 0.33 | 0.33 | 89 | 1010.8 |
| 20260509210750 | 13 | 141 | 0.0 | 0.0 | 1.32 | 0.33 | 0.33 | 89 | 1010.8 |
| 20260509210248 | 13 | 163 | 0.0 | 1.6 | 1.80 | 0.33 | 0.33 | 87 | 1010.9 |
| 20260509205747 | 13 | 164 | 0.0 | 1.6 | 0.97 | 0.15 | 0.15 | 86 | 1010.9 |
| 20260509205242 | 13 | 64 | 1.6 | 1.6 | 0.18 | 0.03 | 0.03 | 84 | 1011.2 |
| 20260509204738 | 13 | 125 | 0.0 | 0.0 | 0.00 | 0.00 | 0.00 | 82 | 1010.4 |
| 20260509204235 | 14 | 108 | 0.0 | 0.0 | 0.00 | 0.00 | 0.00 | 81 | 1010.5 |
| 20260509203730 | 14 | 134 | 0.0 | 0.0 | 0.00 | 0.00 | 0.00 | 79 | 1010.7 |
| 20260509203229 | 14 | 1 | 3.2 | 3.2 | 0.00 | 0.00 | 0.00 | 78 | 1010.7 |
| 20260509202724 | 14 | 113 | 1.6 | 1.6 | 0.00 | 0.00 | 0.00 | 78 | 1010.8 |
| 20260509202220 | 15 | 103 | 1.6 | 3.2 | 0.00 | 0.00 | 0.00 | 78 | 1010.4 |
| 20260509201715 | 15 | 126 | 1.6 | 3.2 | 0.00 | 0.00 | 0.00 | 78 | 1010.5 |
| 20260509201212 | 15 | 150 | 1.6 | 3.2 | 0.00 | 0.00 | 0.00 | 79 | 1010.5 |
| 20260509200708 | 15 | 125 | 1.6 | 1.6 | 0.00 | 0.00 | 0.00 | 78 | 1010.4 |
| 20260509200203 | 15 | 22 | 3.2 | 4.8 | 0.00 | 0.00 | 0.00 | 77 | 1010.7 |
| 20260509195659 | 15 | 46 | 1.6 | 3.2 | 0.00 | 0.00 | 0.00 | 78 | 1010.8 |
| 20260509195155 | 15 | 349 | 6.4 | 6.4 | 0.00 | 0.00 | 0.00 | 77 | 1010.6 |
| 20260509194654 | 15 | 120 | 3.2 | 4.8 | 0.00 | 0.00 | 0.00 | 79 | 1010.6 |
| 20260509194152 | 14 | 107 | 1.6 | 1.6 | 0.00 | 0.00 | 0.00 | 78 | 1010.8 |
| 20260509193648 | 14 | 185 | 0.0 | 1.6 | 0.00 | 0.00 | 0.00 | 79 | 1011.0 |
| 20260509193143 | 14 | 140 | 3.2 | 3.2 | 0.00 | 0.00 | 0.00 | 80 | 1011.2 |
| 20260509192640 | 14 | 309 | 6.4 | 6.4 | 0.00 | 0.00 | 0.00 | 79 | 1011.4 |
| 20260509192136 | 14 | 30 | 3.2 | 4.8 | 0.00 | 0.00 | 0.00 | 80 | 1011.3 |
| 20260509191635 | 13 | 289 | 4.8 | 4.8 | 0.00 | 0.00 | 0.00 | 80 | 1011.7 |
| 20260509191132 | 14 | 182 | 3.2 | 4.8 | 0.00 | 0.00 | 0.00 | 80 | 1011.5 |
| 20260509190629 | 14 | 343 | 4.8 | 4.8 | 0.00 | 0.00 | 0.00 | 78 | 1011.4 |
| 20260509190126 | 14 | 323 | 3.2 | 3.2 | 0.00 | 0.00 | 0.00 | 77 | 1011.4 |
| 20260509185624 | 14 | 116 | 1.6 | 3.2 | 0.00 | 0.00 | 0.00 | 76 | 1011.4 |
| 20260509185119 | 14 | 10 | 6.4 | 6.4 | 0.00 | 0.00 | 0.00 | 76 | 1011.5 |
| 20260509184618 | 14 | 286 | 3.2 | 3.2 | 0.00 | 0.00 | 0.00 | 75 | 1011.5 |
| 20260509184114 | 15 | 302 | 4.8 | 6.4 | 0.00 | 0.00 | 0.00 | 76 | 1011.6 |
| 20260509183610 | 15 | 104 | 3.2 | 4.8 | 0.00 | 0.00 | 0.00 | 75 | 1011.7 |
| 20260509183106 | 15 | 112 | 3.2 | 4.8 | 0.00 | 0.00 | 0.00 | 76 | 1011.6 |
| 20260509182602 | 15 | 24 | 4.8 | 9.7 | 0.00 | 0.00 | 0.00 | 76 | 1011.6 |
| 20260509182059 | 15 | 135 | 4.8 | 4.8 | 0.00 | 0.00 | 0.00 | 76 | 1011.6 |
| 20260509181557 | 15 | 243 | 4.8 | 4.8 | 0.00 | 0.00 | 0.00 | 75 | 1011.7 |
| 20260509181054 | 15 | 352 | 3.2 | 4.8 | 0.00 | 0.00 | 0.00 | 75 | 1011.5 |
| 20260509180550 | 15 | 151 | 6.4 | 6.4 | 0.00 | 0.00 | 0.00 | 74 | 1011.5 |